Total_Precipitation_Accumulation
2.55 2.22 3.50 3.61 3.20 2.94 2.98 3.16 3.39 3.37 3.29 3.14 3.01 2.84 2.66 2.44 2.33 2.39 2.29 2.33 2.35 2.38 2.46 2.57 2.56 2.70 2.65 2.45 2.38 2.46 2.48 2.44 2.53 2.48 2.20 2.26 2.51 2.44 2.36 2.72 3.55 4.10 3.59
1.74 1.85 3.17 3.42 3.06 2.82 2.84 3.13 3.36 3.35 3.39 3.38 3.05 2.72 2.51 2.27 2.12 2.18 2.19 2.19 2.13 2.13 2.18 2.38 2.62 3.01 2.93 2.66 2.53 2.56 2.46 2.52 2.57 2.64 2.61 2.53 2.60 2.65 2.51 2.65 3.21 3.54 3.23
1.44 1.59 2.38 3.26 3.12 2.92 3.03 3.16 3.15 3.08 3.02 2.95 2.77 2.54 2.43 2.24 2.16 2.20 2.21 2.21 2.07 1.99 1.95 2.15 2.50 2.82 2.95 2.76 2.58 2.46 2.30 2.35 2.40 2.66 3.22 3.71 3.02 2.80 2.73 2.61 2.84 2.80 2.73
1.33 1.43 1.81 3.03 3.12 2.97 3.07 3.12 2.97 2.82 2.67 2.50 2.45 2.41 2.30 2.22 2.10 2.07 2.13 2.19 2.03 1.99 1.98 2.08 2.37 2.55 2.69 2.62 2.48 2.25 2.01 2.09 2.30 2.50 3.02 3.64 3.46 3.19 3.08 2.92 2.92 2.62 2.62
1.24 1.37 1.91 2.87 2.97 2.92 2.86 2.86 2.89 2.70 2.52 2.29 2.14 2.18 2.12 2.10 1.98 1.99 2.03 1.94 1.86 1.91 1.83 1.88 2.14 2.34 2.55 2.50 2.33 2.16 1.98 2.03 2.27 1.98 2.34 3.06 3.75 3.68 3.10 3.01 3.05 2.77 2.67
1.25 1.34 1.82 2.55 2.73 2.76 2.69 2.63 2.56 2.41 2.26 2.17 2.02 2.07 2.11 2.06 1.98 1.93 1.83 1.81 1.81 1.86 1.83 1.79 1.91 2.21 2.54 2.49 2.42 2.40 2.30 2.15 1.91 1.87 2.31 2.96 3.66 3.71 3.21 3.05 2.89 2.90 2.81
1.33 1.28 1.64 2.33 2.48 2.57 2.50 2.32 2.27 2.26 2.12 2.05 1.98 1.88 1.89 1.94 1.97 1.91 1.90 1.90 1.83 1.87 1.92 1.88 1.95 2.05 2.27 2.39 2.53 2.53 2.39 1.99 1.70 2.01 2.19 2.71 3.20 3.54 3.16 3.18 3.13 3.18 3.03
1.36 1.28 1.43 2.03 2.29 2.35 2.29 2.25 2.21 2.15 2.05 1.94 1.82 1.74 1.78 1.83 1.79 1.70 1.71 1.76 1.73 1.71 1.80 1.79 1.86 1.85 1.88 2.10 2.41 2.63 2.48 1.83 1.50 1.73 1.90 2.50 3.36 3.51 3.03 3.13 3.32 3.43 3.41
1.60 1.45 1.35 1.50 1.76 1.98 2.21 2.26 2.33 2.30 2.23 2.06 1.86 1.75 1.79 1.77 1.61 1.52 1.64 1.73 1.78 1.81 1.92 1.93 1.97 1.92 1.90 2.08 2.34 2.58 2.41 1.81 1.70 1.83 1.72 2.58 3.65 3.34 2.78 2.64 2.89 3.09 3.29
1.55 1.49 1.39 1.43 1.51 1.62 1.86 2.20 2.49 2.56 2.62 2.33 1.97 1.84 1.73 1.60 1.52 1.58 1.64 1.78 1.94 2.07 2.23 2.27 2.19 2.03 2.01 2.09 2.24 2.27 2.02 1.66 1.75 1.81 2.18 2.75 3.66 3.43 2.79 2.45 2.52 2.47 2.66
1.15 1.21 1.26 1.33 1.44 1.53 1.64 1.79 2.26 2.48 2.62 2.24 1.77 1.77 1.64 1.46 1.38 1.53 1.62 2.08 2.20 2.30 2.54 2.65 2.46 2.18 1.98 1.94 2.04 2.00 1.65 1.44 1.63 1.95 2.44 3.16 3.62 3.49 2.95 2.62 2.37 2.34 2.31
0.97 0.91 0.93 0.94 1.04 1.25 1.36 1.68 2.04 2.10 2.20 1.86 1.62 1.61 1.57 1.65 1.59 1.33 1.51 2.05 2.30 2.39 2.26 2.28 2.36 2.06 1.69 1.45 1.45 1.49 1.45 1.41 1.65 1.97 2.56 3.58 3.87 3.69 3.16 2.70 2.39 2.38 2.34
0.74 0.73 0.72 0.78 0.82 1.00 1.35 1.65 1.92 2.07 2.15 2.10 2.03 1.78 1.75 1.66 1.47 1.33 1.38 1.49 1.63 1.73 1.62 1.67 1.75 1.59 1.50 1.36 1.33 1.31 1.29 1.47 1.93 2.16 2.84 3.79 4.17 3.97 3.49 3.05 2.68 2.62 2.64
0.76 0.78 0.71 0.65 0.71 0.88 1.07 1.31 1.66 1.91 1.97 1.94 1.85 1.52 1.55 1.61 1.47 1.43 1.55 1.67 1.64 1.68 1.82 1.79 1.78 1.68 1.51 1.31 1.29 1.36 1.36 1.40 1.73 2.07 2.71 3.36 4.08 4.39 3.96 3.46 3.12 3.04 2.94
0.87 0.96 0.92 0.77 0.74 0.85 0.99 1.03 1.24 1.48 1.56 1.84 1.85 1.44 1.30 1.36 1.47 1.49 1.40 1.61 1.72 1.78 1.86 1.88 1.81 1.69 1.65 1.47 1.47 1.50 1.55 1.42 1.56 1.73 2.24 2.73 3.35 4.21 4.40 4.01 3.70 3.61 3.34
0.74 0.86 0.92 0.93 0.94 0.94 0.96 0.95 0.99 1.03 1.17 1.31 1.35 1.17 1.12 1.16 1.31 1.51 1.41 1.41 1.55 1.76 1.89 1.89 1.84 1.89 1.86 1.65 1.63 1.67 1.65 1.60 1.61 1.69 1.93 2.03 2.29 3.00 3.77 4.17 4.25 4.05 3.66
0.62 0.71 0.83 0.89 0.96 1.01 1.11 1.12 1.01 0.99 1.12 1.15 1.10 1.10 1.13 1.11 1.23 1.47 1.41 1.31 1.34 1.51 1.70 1.94 2.02 2.03 1.82 1.74 1.76 1.75 1.64 1.62 1.62 1.81 1.88 1.97 1.91 2.11 2.71 3.25 3.80 3.98 4.03
0.65 0.67 0.74 0.71 0.81 0.95 1.13 1.22 1.20 1.16 1.22 1.18 1.04 0.99 0.98 0.98 1.02 1.27 1.37 1.29 1.29 1.48 1.75 2.02 2.23 2.27 2.07 2.03 2.07 1.98 1.75 1.69 1.64 1.78 1.85 1.96 2.08 1.88 1.94 2.15 2.63 3.25 3.77
0.72 0.70 0.71 0.74 0.75 0.80 0.95 1.09 1.11 1.11 1.17 1.15 1.07 1.04 0.97 0.92 0.96 1.21 1.45 1.49 1.47 1.66 1.81 1.82 2.08 2.24 2.35 2.26 2.08 1.95 1.89 1.88 1.86 1.80 1.94 1.95 2.01 1.97 1.81 1.58 1.68 2.20 2.89
0.82 0.82 0.85 0.81 0.75 0.75 0.79 0.92 1.02 0.99 1.02 1.11 1.06 1.09 1.12 1.15 1.17 1.39 1.65 1.68 1.76 1.86 1.97 2.19 2.48 2.49 2.42 2.45 2.17 1.91 1.80 1.84 1.93 2.03 2.02 2.02 2.08 1.90 1.73 1.57 1.52 1.53 2.12
0.75 0.74 0.79 0.85 0.79 0.74 0.68 0.75 0.86 0.91 1.02 1.13 1.23 1.32 1.32 1.29 1.36 1.59 1.79 2.02 2.15 2.06 2.09 2.37 2.68 2.78 2.56 2.41 2.51 2.37 2.17 1.98 1.98 1.96 1.96 2.03 2.07 2.01 1.90 1.83 1.76 1.65 1.80
0.61 0.63 0.69 0.75 0.74 0.69 0.62 0.67 0.79 0.92 1.04 1.20 1.40 1.65 1.58 1.44 1.46 1.49 1.77 1.95 2.04 2.18 2.21 2.33 2.66 3.00 2.74 2.46 2.73 3.18 2.95 2.72 2.18 1.83 1.97 2.02 2.12 2.11 2.05 1.91 1.92 1.83 1.85
0.52 0.59 0.65 0.70 0.70 0.72 0.80 0.96 1.23 1.51 1.68 1.74 1.78 2.02 2.05 1.89 1.81 1.77 1.81 1.96 2.05 2.25 2.41 2.43 2.52 2.90 2.93 2.66 2.62 3.27 3.32 3.17 2.90 2.32 1.95 2.01 2.18 2.27 2.29 2.20 2.06 2.00 1.89
0.49 0.60 0.67 0.70 0.78 0.80 0.95 1.28 1.72 2.06 2.23 2.20 2.26 2.32 2.41 2.31 2.13 2.13 2.13 2.24 2.19 2.20 2.31 2.28 2.28 2.55 2.91 2.94 2.71 2.55 2.53 2.72 3.17 2.91 2.30 2.10 2.13 2.15 2.31 2.18 2.19 2.22 2.13
0.56 0.64 0.76 0.86 1.02 1.20 1.33 1.52 1.83 1.99 2.04 2.19 2.37 2.61 2.79 2.83 2.78 2.73 2.63 2.46 2.26 2.22 2.30 2.34 2.36 2.48 2.61 2.78 2.74 2.55 2.48 2.45 2.41 2.74 2.73 2.44 2.21 2.09 2.18 2.23 2.27 2.27 2.25
0.73 0.83 0.89 1.09 1.22 1.27 1.41 1.54 1.66 1.73 1.84 2.07 2.25 2.49 2.68 2.73 2.79 2.72 2.52 2.23 2.06 2.03 2.12 2.30 2.33 2.42 2.43 2.51 2.46 2.30 2.30 2.33 2.38 2.60 2.60 2.54 2.49 2.16 1.98 2.03 2.10 2.15 2.05